Miscellaneous Local Product
Issued by NWS Hastings, NE

Home | Current Version | Previous Version | Graphics & Text | Print | Product List | Glossary On
Versions: 1 2 3 4 5 6 7 8 9 10 11 12 13 14 15 16 17 18 19 20 21 22 23 24 25 26 27 28 29 30 31 32 33 34 35 36 37 38 39 40 41 42 43 44 45 46 47 48 49 50
000
AXUS43 KGID 200202
MISGRI

GID CWA HOURLY WEATHER ROUNDUP
NATIONAL WEATHER SERVICE HASTINGS NE
900 PM CDT THU APR 19 2018

NOTE: "FAIR" INDICATES FEW OR NO CLOUDS BELOW 12,000 FEET WITH NO
SIGNIFICANT WEATHER AND/OR OBSTRUCTIONS TO VISIBILITY.

...SOUTH CENTRAL NEBRASKA...

CITY           SKY/WX    TMP DP  RH WIND       PRES   REMARKS
GRAND ISLAND   CLEAR     47  29  49 SE7       30.33S
KEARNEY        CLEAR     44  27  51 SE8       30.32R
HASTINGS       CLEAR     48  27  44 SE7       30.32S
ORD            CLEAR     42  26  53 E5        30.32R
YORK             N/A     45  27  49 CALM      30.34S
AURORA         CLEAR     44  25  47 E7        30.34R
LEXINGTON      PTCLDY    48  27  44 SE8       30.30R
HOLDREGE       CLEAR     41  27  57 SE8       30.30S
HEBRON         CLOUDY    43  28  55 CALM      30.35R

...NEBRASKA PANHANDLE...

CITY           SKY/WX    TMP DP  RH WIND       PRES   REMARKS
CHADRON        CLOUDY    53  30  41 SE14      30.12S
ALLIANCE       CLOUDY    49  30  48 SE18      30.12F
SCOTTSBLUFF    CLOUDY    52  32  46 E22       30.07S
SIDNEY         CLOUDY    52  28  39 SE24G31   30.11F

...WESTERN AND NORTH CENTRAL NEBRASKA...

CITY           SKY/WX    TMP DP  RH WIND       PRES   REMARKS
VALENTINE      PTCLDY    46  27  47 SE10      30.29R
AINSWORTH      PTCLDY    40  28  62 E6        30.31R
ONEILL         PTCLDY    43  32  65 E8        30.34S
BROKEN BOW     PTCLDY    45  28  51 E8        30.30R
IMPERIAL       CLOUDY    50  26  39 E20       30.18S
NORTH PLATTE   MOCLDY    45  28  51 SE10      30.26S
MCCOOK         MOCLDY    49  27  42 E12       30.24S

...EASTERN NEBRASKA...

CITY           SKY/WX    TMP DP  RH WIND       PRES   REMARKS
NORFOLK        CLEAR     41  27  57 E5        30.33F
SO SIOUX CITY  PTCLDY    39  28  64 E9        30.40S WCI  33
TEKAMAH        PTCLDY    45  31  58 E9        30.38R
COLUMBUS       PTCLDY    44  29  55 E8        30.36S
ALBION         CLEAR     46  26  44 E6        30.35R
OMAHA EPPLEY   CLOUDY    50  27  40 E8        30.37S
OFFUTT AFB     PTCLDY    42  28  56 NE5       30.36S
MILLARD        PTCLDY    54  28  37 E3        30.37R
LINCOLN        PTCLDY    51  26  37 E8        30.37R
NEBRASKA CITY  CLOUDY    49  28  43 E6        30.36S
BEATRICE       CLOUDY    50  29  44 E3        30.36R
FALLS CITY     PTCLDY    49  25  39 E6        30.35F

...NORTHERN KANSAS...

CITY           SKY/WX    TMP DP  RH WIND       PRES   REMARKS
GOODLAND       MOCLDY    51  26  37 SE18G28   30.16S
HILL CITY      CLEAR     49  26  41 E12       30.27F
NORTON         CLEAR     48  28  46 E6        30.27S
PHILLIPSBURG   CLEAR     50  27  40 E9        30.30F
SMITH CENTER   CLEAR     43  25  49 E9        30.32S
BELOIT         CLEAR     36  16  44 CALM      30.34R
HAYS           CLEAR     46  26  45 E12       30.29S
RUSSELL        CLOUDY    49  29  46 E10       30.30R
CONCORDIA      CLOUDY    46  24  42 CALM      30.34R
SALINA         CLOUDY    54  27  35 SE6       30.33R
TOPEKA         CLEAR     51  29  42 E5        30.35S



USA.gov is the U.S. government's official web portal to all federal, state and local government web resources and services.